This is the latest recevied weather packets stored in our database for station/object OE3PDB-3. If no packets are shown the sender has not sent any weather packets the latest 10 day(s).
| Time | Temp. | Humidity | Pressure | Rain* | Wind** | Luminosity | Snow |
|---|---|---|---|---|---|---|---|
| 1787730628 | 23.89° C | 58% | 1017.9 hPa | 0 mm | - | - | - |
| 1787730028 | 23.33° C | 59% | 1017.9 hPa | 0 mm | - | - | - |
| 1787729428 | 22.78° C | 62% | 1017.9 hPa | 0 mm | - | - | - |
| 1787728828 | 21.11° C | 67% | 1017.8 hPa | 0 mm | - | - | - |
| 1787728228 | 20° C | 70% | 1017.6 hPa | 0 mm | - | - | - |
| 1787727628 | 17.78° C | 75% | 1017.6 hPa | 0 mm | - | - | - |
| 1787727028 | 17.22° C | 76% | 1017.6 hPa | 0 mm | - | - | - |
| 1787726429 | 16.67° C | 77% | 1017.6 hPa | 0 mm | - | - | - |
| 1787725829 | 16.11° C | 79% | 1017.6 hPa | 0 mm | - | - | - |
| 1787725229 | 16.11° C | 79% | 1017.6 hPa | 0 mm | - | - | - |
| 1787724629 | 16.11° C | 79% | 1017.6 hPa | 0 mm | - | - | - |
| 1787724029 | 15.56° C | 80% | 1017.6 hPa | 0 mm | - | - | - |
| 1787723429 | 15.56° C | 80% | 1017.6 hPa | 0 mm | - | - | - |
| 1787722829 | 15° C | 80% | 1017.6 hPa | 0 mm | - | - | - |
| 1787722229 | 15° C | 80% | 1017.6 hPa | 0 mm | - | - | - |
| 1787721629 | 15° C | 80% | 1017.5 hPa | 0 mm | - | - | - |
| 1787721029 | 15° C | 80% | 1017.4 hPa | 0 mm | - | - | - |
| 1787720429 | 15° C | 80% | 1017.5 hPa | 0 mm | - | - | - |
| 1787719829 | 15° C | 80% | 1017.3 hPa | 0 mm | - | - | - |
| 1787719229 | 15° C | 80% | 1017.2 hPa | 0 mm | - | - | - |
| 1787718629 | 15° C | 80% | 1017.1 hPa | 0 mm | - | - | - |
| 1787718029 | 15° C | 80% | 1017.2 hPa | 0 mm | - | - | - |
| 1787717429 | 15° C | 80% | 1017 hPa | 0 mm | - | - | - |
| 1787716829 | 15° C | 80% | 1017.1 hPa | 0 mm | - | - | - |
| 1787716229 | 15° C | 80% | 1017 hPa | 0 mm | - | - | - |
* Rain latest hour (hover to see other rain measurements)
** Current wind speed in m/s (hover to see current wind gust speed)